Weather History for LICT - November, 2012

Change the Weather History Date:

Monday, November 5, 2012

  Actual Average Record
Temperature  
Mean Temperature 74 °F -  
Max Temperature 80 °F 66 °F 80 °F (2012)
Min Temperature 69 °F 53 °F 42 °F (2006)
Cooling Degree Days 10    
Growing Degree Days 24 (Base 50)    
Moisture  
Dew Point 68 °F    
Average Humidity 85    
Maximum Humidity 94    
Minimum Humidity 68    
Precipitation  
Precipitation 0.00 in 0.09 in - ()
Sea Level Pressure  
Sea Level Pressure 29.93 in    
Wind  
Wind Speed 13 mph ()    
Max Wind Speed 21 mph    
Max Gust Speed -    
Visibility 6.5 miles    
Events      
Averages and records for this station are not official NWS values.
T = Trace of Precipitation, MM = Missing Value Source: Averaged Metar Reports

Daily Weather History Graph

Daily Weather History Graph

Search for Another Location

Airport or City:

Trip Planner

Search our weather history database for the weather conditions in past years. The results will help you decide how hot, cold, wet, or windy it might be!

Date:

Astronomy

Nov. 05, 2012 Rise Set
Actual Time 6:40 AM CET 5:06 PM CET
Civil Twilight 6:12 AM CET 5:34 PM CET
Nautical Twilight 5:41 AM CET 6:05 PM CET
Astronomical Twilight 5:10 AM CET 6:36 PM CET
Moon 10:27 PM CET (11/5) 11:49 AM CET (11/5)
Length of Visible Light 11h 21m
Length of Day
10h 26m
Waning Gibbous, 65% of the Moon is Illuminated
Nov 5
Waning Gibbous
Nov 7
Last Quarter
Nov 13
New
Nov 20
First Quarter
Nov 28
Full

Hourly Weather History & Observations

Time (CET) Temp. Heat Index Dew Point Humidity Pressure Visibility Wind Dir Wind Speed Gust Speed Precip Events Conditions
12:55 AM 71.6 °F - 68.0 °F 88% 29.92 in 6.2 mi SSE 17.3 mph - N/A   Partly Cloudy
1:00 AM 72 °F - 69 °F 87% 29.93 in 7 mi SSE 17.3 mph - -   Scattered Clouds
1:55 AM 71.6 °F - 68.0 °F 88% 29.92 in 6.2 mi SSE 18.4 mph - N/A   Partly Cloudy
2:55 AM 71.6 °F - 68.0 °F 88% 29.89 in 6.2 mi SSE 11.5 mph - N/A   Partly Cloudy
3:55 AM 71.6 °F - 68.0 °F 88% 29.86 in 6.2 mi SE 19.6 mph - N/A   Partly Cloudy
4:55 AM 71.6 °F - 68.0 °F 88% 29.86 in 6.2 mi SE 17.3 mph - N/A   Partly Cloudy
5:55 AM 71.6 °F - 68.0 °F 88% 29.86 in 6.2 mi SE 20.7 mph - N/A   Partly Cloudy
6:55 AM 71.6 °F - 68.0 °F 88% 29.86 in 6.2 mi SSE 19.6 mph - N/A   Scattered Clouds
7:00 AM 72 °F - 69 °F 85% 29.87 in 10 mi SSE 19.6 mph - -   Partly Cloudy
7:55 AM 73.4 °F - 69.8 °F 88% 29.89 in 6.2 mi SSE 15.0 mph - N/A   Scattered Clouds
8:55 AM 73.4 °F - 71.6 °F 94% 29.92 in 6.2 mi SSE 16.1 mph - N/A   Scattered Clouds
9:55 AM 77.0 °F - 71.6 °F 83% 29.92 in 6.2 mi SSE 15.0 mph - N/A   Partly Cloudy
10:55 AM 78.8 °F - 71.6 °F 78% 29.92 in 6.2 mi SSE 11.5 mph - N/A   Partly Cloudy
11:55 AM 80.6 °F 83.9 °F 69.8 °F 70% 29.92 in - North - - N/A   Partly Cloudy
12:55 PM 77.0 °F - 68.0 °F 74% 29.92 in 6.2 mi SSW 9.2 mph - N/A   Partly Cloudy
1:00 PM 77 °F - 69 °F 68% 29.92 in 10 mi SSW 9.2 mph - -   Overcast
1:55 PM 75.2 °F - 69.8 °F 83% 29.92 in 6.2 mi SSW 10.4 mph - N/A   Partly Cloudy
2:55 PM 75.2 °F - 69.8 °F 83% 29.92 in 6.2 mi SSW 11.5 mph - N/A   Mostly Cloudy
3:55 PM 73.4 °F - 69.8 °F 88% 29.95 in 6.2 mi SW 11.5 mph - N/A   Scattered Clouds
4:55 PM 71.6 °F - 69.8 °F 94% 29.95 in 6.2 mi WSW 11.5 mph - N/A   Partly Cloudy
5:55 PM 69.8 °F - 68.0 °F 94% 29.95 in 6.2 mi West 9.2 mph - N/A   Partly Cloudy
6:55 PM 69.8 °F - 68.0 °F 94% 29.98 in 6.2 mi WNW 9.2 mph - N/A   Partly Cloudy
7:00 PM 70 °F - 67 °F 88% 29.99 in 7 mi WNW 9.2 mph - -   Scattered Clouds
7:55 PM 69.8 °F - 66.2 °F 88% 29.98 in 6.2 mi West 10.4 mph - N/A   Scattered Clouds
8:55 PM 69.8 °F - 66.2 °F 88% 30.01 in 6.2 mi West 10.4 mph - N/A   Partly Cloudy
9:55 PM 69.8 °F - 66.2 °F 88% 30.01 in 6.2 mi WNW 13.8 mph - N/A   Partly Cloudy
10:55 PM 69.8 °F - 64.4 °F 83% 30.04 in 6.2 mi WNW 11.5 mph - N/A   Partly Cloudy
11:55 PM 69.8 °F - 62.6 °F 78% 30.04 in 6.2 mi NW 11.5 mph - N/A   Partly Cloudy